Theta_e
301 300 301 301 302 304 305 306 311 313 314 316 317 319 321 319 321 321 319 319 320 320 322 321 320 320 320 320 319 319 319 318 317 316 314 314 311 310 309 308 302 298 295
299 300 300 301 302 303 305 306 310 313 315 316 317 319 318 320 320 320 320 320 322 322 321 320 320 321 320 320 318 318 317 318 318 316 315 313 311 309 308 305 302 299 294
299 300 300 301 302 303 304 305 309 313 315 316 317 319 320 320 319 319 320 321 321 321 321 321 320 319 319 318 318 317 316 315 316 316 316 314 312 310 309 307 302 301 294
301 300 301 300 301 303 304 304 309 314 315 316 316 320 320 321 321 321 319 319 320 320 320 319 320 318 319 319 317 316 316 316 315 315 313 311 310 309 308 305 302 298 294
301 300 301 300 301 302 304 307 312 314 315 316 317 316 317 320 320 318 318 319 319 318 317 317 317 317 317 317 316 316 315 314 313 312 311 311 309 310 309 308 302 296 293
302 301 302 301 301 302 304 309 313 314 314 315 317 318 317 317 317 317 317 318 318 318 317 317 317 317 317 315 315 314 314 312 312 311 310 310 309 307 306 305 302 297 293
302 302 302 303 302 302 304 311 313 314 315 316 315 315 315 316 316 316 316 317 318 317 317 316 316 315 315 315 314 313 313 312 312 311 310 309 309 309 305 304 304 301 293
303 303 303 304 303 303 304 310 311 312 313 314 315 314 313 313 313 313 314 315 316 315 315 314 314 313 313 313 312 311 310 309 308 308 308 307 307 305 301 303 303 300 293
303 303 303 304 305 304 305 306 308 309 310 311 311 311 311 311 311 311 313 313 313 312 312 312 312 310 310 309 308 307 306 306 306 305 305 302 300 300 297 299 299 297 293
303 303 304 304 304 305 305 306 306 307 308 308 309 309 309 309 310 311 312 312 311 311 310 310 308 307 306 306 305 304 304 305 303 300 297 295 295 295 295 296 298 295 293
301 303 303 304 304 304 304 305 306 307 307 307 307 308 308 309 309 309 309 309 309 308 307 307 306 306 305 304 301 300 297 297 298 297 296 295 294 294 294 295 295 294 293
296 299 302 303 303 304 304 305 305 305 305 306 306 306 306 307 307 306 306 307 307 307 307 306 305 305 304 303 302 302 300 296 294 294 294 293 293 293 294 293 293 293 293
297 295 296 300 302 303 303 304 304 305 305 305 305 306 306 305 306 306 304 304 304 303 303 303 303 303 302 302 302 301 298 297 295 294 293 293 292 292 292 293 292 292 292
298 297 296 295 294 295 299 301 303 303 304 304 304 304 304 304 304 304 304 304 304 304 304 304 304 304 304 303 303 301 299 298 295 293 293 292 292 292 292 292 292 292 291
298 297 296 296 295 294 294 294 293 294 295 296 299 300 302 302 303 303 303 303 303 302 302 301 301 300 299 299 300 300 298 296 296 295 294 292 292 292 291 291 291 291 291
296 296 296 295 295 295 294 294 294 294 294 293 293 293 293 293 293 293 293 293 293 293 293 292 292 292 292 292 292 293 293 293 293 294 294 293 292 292 291 291 291 290 291
297 296 296 295 295 295 295 295 295 294 294 295 295 295 296 296 297 297 297 298 298 298 297 296 295 294 293 292 291 291 291 290 291 291 291 291 291 291 291 291 291 291 291
297 297 297 297 297 297 297 297 298 297 296 297 297 297 298 299 299 299 300 301 301 301 300 298 297 295 294 293 292 292 291 290 290 290 290 290 290 290 290 290 290 290 290
299 299 298 298 298 298 298 298 298 303 299 298 298 298 299 301 305 307 307 306 302 300 298 298 297 296 295 294 293 293 292 292 291 290 289 289 289 289 289 289 289 289 289
302 301 301 300 300 300 300 300 299 299 298 298 298 299 303 305 304 303 303 300 299 298 297 296 295 295 294 294 293 293 292 292 291 291 290 290 289 288 288 288 288 288 288
301 300 301 302 301 300 300 299 299 298 297 298 300 304 304 302 302 300 298 296 295 294 293 292 292 291 291 291 291 290 290 289 289 289 289 289 289 289 288 288 288 288 288
300 299 299 299 300 301 300 298 297 297 299 302 301 300 299 298 295 294 294 293 292 291 290 290 289 289 288 288 288 287 287 287 287 287 287 287 286 286 286 286 286 286 286
298 298 299 300 301 301 302 301 300 301 301 300 298 296 294 293 292 291 291 290 289 289 288 288 287 287 287 286 286 285 285 285 285 285 285 285 285 285 285 285 285 285 285
298 298 298 298 299 300 301 299 299 298 297 296 293 292 291 290 289 288 288 287 286 286 286 285 285 285 285 284 284 284 284 284 283 283 283 283 283 283 283 283 283 283 283
296 297 297 297 298 298 297 295 295 293 292 291 290 289 288 287 287 287 286 285 285 284 284 283 283 283 282 282 281 281 281 281 281 282 282 282 282 281 281 281 281 281 281
296 295 295 295 295 294 293 292 291 289 289 288 287 286 286 285 284 284 283 282 282 281 281 280 280 279 279 278 278 277 277 277 277 277 278 279 279 279 279 279 279 279 280
Wind_Speed
7 7 6 5 4 4 2 4 6 6 4 8 10 11 18 15 18 22 15 16 18 18 17 19 17 17 17 15 10 10 10 9 11 6 7 11 10 9 7 6 3 2 4
6 8 7 5 3 4 4 6 7 7 10 11 12 17 16 17 20 20 19 14 14 17 18 17 16 14 19 14 10 10 9 7 10 11 13 11 12 12 10 5 3 5 4
7 7 8 7 4 6 6 8 9 8 10 12 15 17 22 20 19 16 16 15 13 11 14 9 13 10 12 15 11 8 9 9 8 9 9 11 13 13 10 8 10 8 6
9 8 8 7 6 8 8 8 9 11 10 11 14 17 21 18 19 19 16 13 10 13 11 15 10 8 7 9 10 10 7 8 7 8 7 9 12 13 15 14 11 10 9
8 8 8 9 11 11 12 10 10 13 12 14 12 14 17 18 17 14 13 14 16 12 9 9 11 9 8 7 8 6 5 5 6 8 7 7 12 16 14 12 13 12 11
8 9 9 11 12 14 16 15 14 14 13 14 15 16 13 11 10 11 8 9 9 8 10 9 7 6 6 5 5 7 6 5 6 7 8 10 9 11 12 14 15 16 14
9 9 10 11 13 16 18 16 14 14 14 15 16 15 17 16 14 13 12 12 14 11 8 8 8 6 5 5 5 4 5 6 8 7 9 9 11 10 11 15 16 15 13
11 10 10 10 13 15 17 19 18 18 18 17 16 13 12 13 10 9 7 9 10 10 7 5 5 4 4 4 5 6 6 8 10 9 9 10 11 11 12 11 12 15 15
11 11 11 11 11 13 14 16 16 15 15 15 14 13 10 8 7 4 7 7 7 7 5 2 1 2 3 4 5 7 9 9 9 10 10 11 12 12 12 14 19 18 19
11 10 11 11 11 10 11 12 13 13 12 10 7 6 6 8 9 8 8 5 4 3 3 4 4 3 3 6 8 9 11 11 11 11 11 12 12 13 14 15 17 19 18
11 10 10 9 9 10 9 9 9 8 9 9 7 7 8 8 9 8 7 6 8 6 6 6 6 7 7 8 8 8 9 10 11 12 12 12 13 13 14 16 19 20 20
10 9 9 9 8 7 7 7 7 7 6 5 3 2 2 4 5 4 4 5 6 7 8 9 9 9 9 9 9 10 10 10 11 11 12 12 13 14 15 16 19 22 22
10 9 9 9 8 8 8 7 6 6 6 6 4 4 5 4 4 5 5 5 7 8 8 9 10 10 11 12 13 13 13 14 14 13 13 13 14 15 17 18 20 23 24
10 10 9 9 8 7 7 6 6 7 7 7 7 7 6 7 7 7 7 8 9 10 11 12 13 14 14 15 15 15 14 14 15 15 16 16 17 17 19 20 21 23 26
12 11 10 9 8 7 6 6 6 6 7 7 7 8 8 9 10 10 11 13 13 13 14 15 16 15 15 16 17 16 16 16 16 16 16 17 19 20 20 22 23 25 28
13 12 10 9 8 8 7 7 6 6 6 6 6 6 7 7 8 9 10 12 13 14 15 15 16 16 16 16 16 17 17 17 18 19 19 19 20 21 22 24 26 27 29
14 13 13 12 10 9 8 7 7 8 9 9 9 8 8 10 11 12 13 15 16 16 16 16 16 17 16 16 16 17 17 17 19 20 21 21 22 21 22 24 26 29 30
15 14 13 13 13 12 12 11 10 12 13 13 12 11 11 10 9 10 13 16 17 19 19 18 17 17 18 18 18 19 20 20 20 20 21 22 23 24 24 25 26 28 29
15 15 15 15 14 14 14 15 13 13 14 13 13 13 11 8 8 12 18 21 20 18 18 18 18 18 18 18 18 20 21 22 23 23 23 24 24 25 26 27 27 28 29
15 16 16 16 14 12 14 16 15 14 13 11 10 10 13 12 11 13 17 17 16 15 15 15 14 15 16 17 18 18 19 20 21 22 23 24 24 26 27 27 28 29 29
19 18 17 16 14 12 11 11 13 12 11 10 8 10 13 10 13 15 11 10 10 11 12 12 13 13 14 15 16 16 16 17 17 18 18 20 21 23 25 26 28 29 31
16 15 15 14 13 11 9 5 5 7 6 6 7 8 10 10 7 5 6 7 8 9 10 11 11 12 13 15 16 16 17 17 17 18 18 19 19 20 20 21 24 25 27
11 13 13 12 10 9 8 9 10 10 8 8 6 5 4 2 3 4 5 5 6 7 8 8 9 9 10 11 12 13 15 16 17 18 19 19 20 20 20 22 22 23 25
9 10 11 12 11 9 10 10 10 9 7 5 4 3 3 3 3 4 4 5 6 7 8 9 11 12 13 14 15 16 17 18 19 19 19 20 20 20 21 21 22 23 24
10 11 12 12 12 11 11 11 9 8 7 7 7 6 6 6 5 5 5 6 8 9 10 12 13 13 15 15 16 17 18 20 22 22 22 22 22 22 21 20 20 22 23
9 10 11 12 11 11 10 9 10 10 10 10 9 8 8 7 8 8 8 8 9 10 11 12 13 14 15 16 17 18 19 20 20 21 21 20 21 21 22 22 23 23 23
Wind_Direction
7 25 17 1 42 134 135 81 86 98 67 55 75 138 179 181 184 181 185 186 204 210 186 190 198 210 217 223 221 248 257 254 281 237 217 208 219 215 208 222 241 270 282
26 18 29 9 52 103 116 97 85 79 65 68 86 109 172 159 174 174 173 178 179 180 188 194 205 210 216 203 234 250 259 235 233 232 216 207 207 207 205 200 233 271 270
59 23 30 16 64 117 108 94 86 99 92 81 107 116 129 141 146 153 163 166 183 190 197 197 183 185 205 209 225 234 230 229 236 234 231 214 211 210 200 215 223 240 248
78 50 37 46 91 121 120 100 93 112 102 104 102 109 117 134 134 145 142 144 153 172 195 205 201 181 196 203 218 224 225 221 208 215 239 220 219 209 203 220 222 227 229
82 73 62 73 91 113 111 105 100 124 124 106 106 136 132 135 133 151 153 149 150 159 168 179 177 179 190 210 212 215 206 207 218 232 241 234 220 212 221 230 229 229 228
93 87 74 86 96 111 108 99 103 109 115 101 96 95 126 142 165 172 153 160 165 159 157 156 174 191 185 178 191 185 211 230 231 234 242 252 248 235 240 239 240 230 230
110 103 87 89 99 112 115 110 107 108 109 112 108 108 110 105 99 106 120 152 154 156 148 147 144 159 169 187 203 226 242 254 253 245 242 245 252 251 249 239 236 237 239
123 120 110 98 101 109 125 127 117 111 110 111 113 110 105 102 99 100 108 126 126 129 136 128 158 176 195 221 237 249 260 264 267 263 259 259 257 255 255 240 244 238 232
131 128 126 117 107 112 116 134 134 127 123 122 116 111 100 95 116 108 125 130 131 118 99 118 170 204 224 247 265 272 269 270 267 270 268 264 261 256 252 234 222 223 231
141 138 136 131 126 120 121 125 132 138 142 141 145 149 157 150 146 149 145 147 142 158 219 221 216 231 263 275 276 275 275 273 273 271 267 261 252 251 246 236 225 231 233
158 153 148 146 143 140 139 132 132 139 140 133 133 137 163 156 159 180 196 187 182 182 195 206 219 228 242 246 246 256 264 266 267 268 266 259 251 245 240 237 232 229 230
169 166 164 161 158 156 156 155 154 154 154 158 141 139 148 172 175 182 201 220 225 230 230 233 240 253 262 258 256 261 265 263 263 268 269 264 254 246 241 240 241 237 236
180 178 180 181 177 175 174 177 179 187 192 199 212 207 203 201 210 228 249 268 275 277 278 281 284 284 284 287 289 291 287 284 278 266 258 255 252 246 243 242 243 242 241
193 193 192 190 192 194 198 200 208 214 221 224 224 227 227 231 238 245 254 260 266 272 275 277 280 283 285 286 286 285 287 290 291 287 280 274 263 252 246 244 242 243 246
204 206 205 203 201 202 206 214 220 230 238 244 250 258 264 267 271 273 275 278 279 280 281 284 288 291 291 290 288 287 286 284 282 280 279 276 273 268 261 257 253 250 252
214 216 216 218 220 222 223 228 234 251 259 266 274 281 285 284 286 290 290 291 295 298 299 300 300 299 298 296 296 293 291 288 284 280 279 278 275 271 269 267 265 262 262
211 214 218 221 223 229 236 243 248 252 257 262 265 267 274 283 290 294 297 299 300 303 302 300 299 300 298 296 293 289 287 283 279 280 279 277 274 271 269 267 267 266 267
219 220 225 228 230 231 231 232 248 257 260 263 268 267 266 273 290 301 305 309 307 305 303 301 299 297 295 292 289 287 287 287 286 283 281 279 277 276 271 270 270 271 271
222 223 226 230 234 243 249 247 236 257 258 258 261 261 260 256 272 294 302 303 300 296 295 296 299 300 299 299 297 293 290 288 285 285 285 285 285 284 282 280 277 275 275
220 219 226 229 234 243 256 261 265 261 255 242 238 245 262 270 286 301 301 298 296 296 297 300 302 303 304 303 302 303 301 301 300 297 294 289 287 285 284 285 284 283 279
230 223 218 220 224 238 239 248 249 246 238 237 235 263 277 301 307 293 298 305 307 310 312 315 317 316 314 312 311 310 310 309 307 306 304 300 297 295 293 290 288 288 287
230 231 223 225 228 232 231 212 233 226 218 241 264 274 290 297 300 311 323 327 333 333 332 332 333 332 331 329 326 324 324 322 319 314 312 310 308 305 303 301 300 298 296
227 222 223 222 212 202 218 215 220 226 217 229 249 282 292 317 351 3 3 360 355 351 348 345 344 338 337 334 332 331 331 330 329 323 319 316 313 311 308 306 304 303 301
190 192 191 188 184 192 204 194 195 205 210 212 202 170 140 110 82 67 45 28 13 7 4 1 357 352 348 344 341 336 331 327 322 321 319 318 316 314 311 307 306 303 302
179 180 184 182 180 183 190 187 180 179 165 155 143 130 110 90 73 58 44 28 18 12 11 9 6 3 0 359 355 350 342 333 329 324 320 317 315 311 307 304 307 308 307
176 180 182 182 181 177 173 168 160 148 139 132 123 112 103 93 79 66 58 52 47 43 39 35 32 25 20 16 14 9 3 358 358 355 348 341 334 329 324 319 315 310 305